Baudette, MN

6:05 PM CST on January 23, 2018 (GMT -0600)
Baudette International

Weather History for KBDE - February, 2013

Change the Weather History Date:

Tuesday, February 19, 2013

  Actual Average Record
Temperature  
Mean Temperature -6 °F -  
Max Temperature 1 °F 23 °F 44 °F (1943)
Min Temperature -13 °F 2 °F -45 °F (1966)
Degree Days  
Heating Degree Days 71    
Moisture  
Dew Point -12 °F    
Average Humidity 70    
Maximum Humidity 76    
Minimum Humidity 62    
Precipitation  
Precipitation 0.00 in - - ()
Sea Level Pressure  
Sea Level Pressure 30.30 in    
Wind  
Wind Speed 15 mph (NNW)    
Max Wind Speed 20 mph    
Max Gust Speed 28 mph    
Visibility 9 miles    
Events      
Averages and records for this station are not official NWS values.
T = Trace of Precipitation, MM = Missing Value Source: NWS Daily Summary

Daily Weather History Graph

Daily Weather History Graph

Search for Another Location

Airport or City:

Trip Planner

Search our weather history database for the weather conditions in past years. The results will help you decide how hot, cold, wet, or windy it might be!

Date:

Astronomy

Feb. 19, 2013 Rise Set
Actual Time 7:18 AM CST 5:46 PM CST
Civil Twilight 6:46 AM CST 6:18 PM CST
Nautical Twilight 6:09 AM CST 6:55 PM CST
Astronomical Twilight 5:33 AM CST 7:31 PM CST
Moon 12:02 PM CST (2/19) 3:06 AM CST (2/19)
Length of Visible Light 11h 32m
Length of Day
10h 27m
Waxing Gibbous, 67% of the Moon is Illuminated
Feb 19
Waxing Gibbous
Feb 25
Full
Mar 4
Last Quarter
Mar 11
New
Mar 19
First Quarter

Hourly Weather History & Observations

Time (CST) Temp. Windchill Dew Point Humidity Pressure Visibility Wind Dir Wind Speed Gust Speed Precip Events Conditions
12:53 AM -0.9 °F -21.2 °F -7.1 °F 75% 30.11 in 6.0 mi North 16.1 mph 25.3 mph 0.00 in   Haze
1:10 AM -0.4 °F -19.2 °F -7.6 °F 72% 30.02 in 8.0 mi North 13.8 mph - N/A   Overcast
1:53 AM -2.0 °F -21.2 °F -8.0 °F 76% 30.13 in 7.0 mi North 13.8 mph 23.0 mph 0.00 in   Overcast
2:26 AM -2.2 °F -21.5 °F -9.4 °F 71% 30.05 in 10.0 mi North 13.8 mph 20.7 mph N/A   Mostly Cloudy
2:35 AM -2.2 °F -20.7 °F -9.4 °F 71% 30.05 in 10.0 mi North 12.7 mph - N/A   Mostly Cloudy
2:53 AM -2.9 °F -22.4 °F -9.0 °F 75% 30.14 in 9.0 mi NNW 13.8 mph 21.9 mph N/A   Overcast
3:53 AM -2.9 °F -24.4 °F -9.0 °F 75% 30.17 in 7.0 mi NNW 17.3 mph - N/A   Overcast
4:53 AM -6.0 °F -29.6 °F -11.9 °F 75% 30.19 in 5.0 mi NNW 19.6 mph - 0.00 in   Overcast
5:53 AM -9.9 °F -34.8 °F -16.1 °F 74% 30.22 in 7.0 mi NNW 19.6 mph 26.5 mph 0.00 in   Mostly Cloudy
6:53 AM -11.9 °F -37.4 °F -18.0 °F 74% 30.25 in 8.0 mi NNW 19.6 mph 27.6 mph N/A   Overcast
7:09 AM -11.2 °F -36.4 °F -18.4 °F 70% 30.14 in 6.0 mi NNW 19.6 mph 26.5 mph N/A   Haze
7:53 AM -13.0 °F -35.2 °F -18.9 °F 75% 30.29 in 10.0 mi NNW 13.8 mph - N/A   Clear
8:53 AM -13.0 °F -36.8 °F -18.9 °F 75% 30.31 in 10.0 mi NNW 16.1 mph - N/A   Clear
9:53 AM -11.0 °F -32.7 °F -18.0 °F 71% 30.33 in 9.0 mi NNW 13.8 mph - N/A   Clear
10:53 AM -9.4 °F -30.6 °F -16.6 °F 71% 30.24 in 10.0 mi NNW 13.8 mph - N/A   Clear
12:53 PM -2.9 °F -23.1 °F -11.9 °F 65% 30.37 in 10.0 mi NNW 15.0 mph - N/A   Clear
1:53 PM -0.9 °F -22.4 °F -9.9 °F 66% 30.38 in 10.0 mi NNW 18.4 mph - N/A   Clear
2:53 PM 1.0 °F -18.7 °F -8.0 °F 66% 30.38 in 9.0 mi NNW 16.1 mph 26.5 mph N/A   Clear
3:53 PM 1.9 °F -18.1 °F -7.1 °F 66% 30.40 in 10.0 mi NNW 17.3 mph - N/A   Clear
4:53 PM 1.9 °F -16.9 °F -7.1 °F 66% 30.43 in 10.0 mi NNW 15.0 mph - N/A   Clear
6:53 PM -0.9 °F -18.3 °F -9.0 °F 69% 30.49 in 10.0 mi NNW 11.5 mph - N/A   Clear
7:53 PM -2.0 °F -19.6 °F -11.0 °F 66% 30.50 in 10.0 mi NNW 11.5 mph - N/A   Clear
8:53 PM -4.0 °F -19.0 °F -14.1 °F 62% 30.52 in 10.0 mi NNW 8.1 mph - N/A   Clear
9:53 PM -6.0 °F -21.5 °F -15.0 °F 65% 30.53 in 10.0 mi NNW 8.1 mph - N/A   Clear
10:53 PM -9.9 °F -23.4 °F -17.0 °F 71% 30.53 in 10.0 mi North 5.8 mph - N/A   Clear
11:53 PM -11.0 °F -24.6 °F -18.0 °F 71% 30.56 in 10.0 mi NNW 5.8 mph - N/A   Clear